Location: Estes Park
(40.3770°N, 105.5210°W)
Time: 03:59:55
(UTC-06:00)

Envisat - Pass Details

Date: 16 October 2017
Orbit: 764 x 766 km, 98.2° (Epoch: 22 October)

Event Time Altitude Azimuth Distance (km) Brightness Sun altitude
Exits shadow 20:26:29 39° 26° (NNE) 1,139 3.7 -24.8°
Drops below altitude 10° 20:29:58 10° 358° (N) 2,305 5.6 -25.4°
Sets 20:32:20 0° 353° (N) 3,235 6.5 -25.9°
